7 * 24
多渠道服务支持
GALILEO 5是欧洲空间局(ESA)发射的伽利略导航系统卫星,于2014年8月22日发射升空。它是伽利略全球卫星导航系统的重要组成部分,承担着提供高精度定位、导航与授时服务的功能,推动了欧洲自主导航系统的组网进程,为全球用户提供了独立于GPS之外的导航选择。
(ESA)
| 数据来源 | 国际轨道数据 |
| 星历时间: | 2026-09-07T03:17:18+0800 4天前 查看轨道信息 |
| 半长轴: | 27977.504km |
| 偏心率: | 0.1685583 |
| 轨道倾角: | 48.790° |
| 近地点辐角 | 182.549° |
| 升交点赤经 | 270.081° |
| 平近点角 | 176.496° |
| 近地点: | 16883.526km |
| 远地点: | 26315.208km |
| 周期: | 776.199分钟 |
| 每日圈数: | 1.855194 |